Kosmos-1806

operational
NORAD ID: 17213 Int'l Des: 1986-098 Owner: PVO Country: SU
MEOELLIPTICALHEO_ELLIPTICALSEMI_SYNC

Kosmos-1806について

説明を読み込み中...

リアルタイム位置

3D地球を読み込み中...

次回通過

高度履歴

Altitude vs Time

uPlot chart will show altitude changes over time

軌道要素

1 17213U 86098A 26058.35248561 .00000046 00000-0 00000+0 0 9999
2 17213 68.5814 149.8432 4694192 81.6792 300.8889 2.00545366287090
Epoch: Feb 27, 2026 • Age: 94 hours

現在のステータス

高度 29248.6 km
速度 2.72 km/s
衛星直下点 -62.01°S, 152.37°W
打ち上げ日 Dec 12, 1986
運用期間 39.2 years
タイプ other

技術仕様

分類 Payload
質量 1250.00 kg
乾燥質量 1150.00 kg
総質量 1250.00 kg
長さ 4.00 m
直径 2.00 m
スパン 5.00 m
形状 Cyl + 2 Pan
製造者 NPOL/KOMET
バスタイプ Oko
フェーズステータス In Orbit
所有者/国 PVO/SU

大規模コンステレーション

Loading constellations...